| time (UTC) | temp F | wind direction | speed MPH | gust MPH | rain 1hr in | rain 24hr in | rain mn in | humidity % | barometer mb |
| 20260502163031 | 91 | 265 | 9.0 | 0.0 | 0.00 | 0.00 | 0.00 | 59 | 1011.0 |
| 20260502161523 | 90 | 296 | 8.0 | 0.0 | 0.00 | 0.00 | 0.00 | 59 | 1011.2 |
| 20260502151519 | 88 | 251 | 8.0 | 0.0 | 0.00 | 0.00 | 0.00 | 63 | 1011.5 |
| 20260502123049 | 79 | 236 | 3.0 | 0.0 | 0.00 | 0.00 | 0.00 | 84 | 1011.3 |
| 20260502121550 | 79 | 222 | 3.0 | 0.0 | 0.00 | 0.00 | 0.00 | 84 | 1011.2 |
| 20260502114610 | 76 | 259 | 0.0 | 0.0 | 0.00 | 0.00 | 0.00 | 89 | 1011.2 |
| 20260502113046 | 75 | 218 | 0.0 | 0.0 | 0.00 | 0.00 | 0.00 | 89 | 1011.3 |
| 20260502111546 | 74 | 218 | 0.0 | 0.0 | 0.00 | 0.00 | 0.00 | 89 | 1011.3 |
| 20260502110044 | 74 | 185 | 0.0 | 0.0 | 0.00 | 0.00 | 0.00 | 88 | 1011.3 |
| 20260502104543 | 74 | 186 | 0.0 | 0.0 | 0.00 | 0.00 | 0.00 | 87 | 1011.3 |
| 20260502103043 | 74 | 186 | 0.0 | 0.0 | 0.00 | 0.00 | 0.00 | 87 | 1011.2 |
| 20260502101559 | 74 | 186 | 0.0 | 0.0 | 0.00 | 0.00 | 0.00 | 86 | 1011.1 |
| 20260502071532 | 75 | 40 | 0.0 | 0.0 | 0.00 | 0.00 | 0.00 | 81 | 1011.2 |
| 20260502070035 | 75 | 55 | 0.0 | 0.0 | 0.00 | 0.00 | 0.00 | 82 | 1011.3 |
| 20260502064543 | 75 | 32 | 0.0 | 0.0 | 0.00 | 0.00 | 0.00 | 84 | 1011.3 |
| 20260502063030 | 75 | 19 | 0.0 | 0.0 | 0.00 | 0.00 | 0.00 | 83 | 1011.4 |
| 20260502061530 | 75 | 342 | 0.0 | 0.0 | 0.00 | 0.00 | 0.00 | 83 | 1011.4 |
| 20260502060040 | 76 | 302 | 0.0 | 0.0 | 0.00 | 0.00 | 0.00 | 85 | 1011.4 |
| 20260502054527 | 76 | 290 | 0.0 | 0.0 | 0.00 | 0.00 | 0.00 | 84 | 1011.3 |
| 20260502053025 | 75 | 290 | 0.0 | 0.0 | 0.00 | 0.00 | 0.00 | 83 | 1011.3 |
| 20260502051529 | 76 | 290 | 0.0 | 0.0 | 0.00 | 0.00 | 0.00 | 81 | 1011.4 |
| 20260502050025 | 76 | 290 | 0.0 | 0.0 | 0.00 | 0.00 | 0.00 | 80 | 1011.6 |
| 20260502044518 | 77 | 290 | 0.0 | 0.0 | 0.00 | 0.00 | 0.00 | 79 | 1011.7 |
| 20260502043016 | 77 | 290 | 0.0 | 0.0 | 0.00 | 0.00 | 0.00 | 78 | 1011.8 |
| 20260502041515 | 78 | 276 | 0.0 | 0.0 | 0.00 | 0.00 | 0.00 | 77 | 1011.9 |
| 20260502040013 | 78 | 349 | 2.0 | 0.0 | 0.00 | 0.00 | 0.00 | 78 | 1012.2 |
| 20260502034508 | 79 | 328 | 2.0 | 0.0 | 0.00 | 0.00 | 0.00 | 78 | 1012.2 |
| 20260502033012 | 79 | 257 | 2.0 | 0.0 | 0.00 | 0.00 | 0.00 | 78 | 1012.1 |
| 20260502031508 | 79 | 268 | 4.0 | 0.0 | 0.00 | 0.00 | 0.00 | 77 | 1012.0 |
| 20260502030007 | 79 | 250 | 4.0 | 0.0 | 0.00 | 0.00 | 0.00 | 77 | 1012.0 |
| 20260502024512 | 80 | 251 | 4.0 | 0.0 | 0.00 | 0.00 | 0.00 | 76 | 1012.0 |
| 20260502023006 | 80 | 244 | 5.0 | 0.0 | 0.00 | 0.00 | 0.00 | 75 | 1011.7 |
| 20260502021505 | 80 | 236 | 4.0 | 0.0 | 0.00 | 0.00 | 0.00 | 75 | 1011.5 |
| 20260502020005 | 80 | 260 | 2.0 | 0.0 | 0.00 | 0.00 | 0.00 | 74 | 1011.4 |
| 20260502014504 | 80 | 218 | 3.0 | 0.0 | 0.00 | 0.00 | 0.00 | 74 | 1011.4 |
| 20260502013004 | 81 | 204 | 2.0 | 0.0 | 0.00 | 0.00 | 0.00 | 73 | 1011.2 |
| 20260502011504 | 81 | 232 | 3.0 | 0.0 | 0.00 | 0.00 | 0.00 | 71 | 1011.1 |
| 20260502010007 | 81 | 192 | 2.0 | 0.0 | 0.00 | 0.00 | 0.00 | 70 | 1010.8 |
| 20260502004503 | 81 | 254 | 3.0 | 0.0 | 0.00 | 0.00 | 0.00 | 68 | 1010.5 |
| 20260502003003 | 82 | 219 | 2.0 | 0.0 | 0.00 | 0.00 | 0.00 | 68 | 1010.3 |
| 20260502001503 | 82 | 209 | 3.0 | 0.0 | 0.00 | 0.00 | 0.00 | 66 | 1010.1 |
| 20260502000002 | 83 | 199 | 3.0 | 0.0 | 0.00 | 0.00 | 0.00 | 65 | 1009.8 |
| 20260501234501 | 84 | 191 | 3.0 | 0.0 | 0.00 | 0.00 | 0.00 | 63 | 1009.7 |
| 20260501233001 | 85 | 163 | 3.0 | 0.0 | 0.00 | 0.00 | 0.00 | 62 | 1009.7 |
| 20260501231500 | 86 | 192 | 3.0 | 0.0 | 0.00 | 0.00 | 0.00 | 60 | 1009.7 |
| 20260501230100 | 89 | 188 | 4.0 | 0.0 | 0.00 | 0.00 | 0.00 | 58 | 1009.5 |
| 20260501224559 | 91 | 185 | 4.0 | 0.0 | 0.00 | 0.00 | 0.00 | 55 | 1009.7 |
| 20260501223059 | 92 | 197 | 5.0 | 0.0 | 0.00 | 0.00 | 0.00 | 53 | 1009.4 |
| 20260501221559 | 93 | 205 | 3.0 | 0.0 | 0.00 | 0.00 | 0.00 | 51 | 1009.4 |
| 20260501220110 | 94 | 173 | 5.0 | 0.0 | 0.00 | 0.00 | 0.00 | 50 | 1009.3 |
| 20260501214558 | 95 | 200 | 4.0 | 0.0 | 0.00 | 0.00 | 0.00 | 48 | 1009.3 |
| 20260501213100 | 95 | 220 | 5.0 | 0.0 | 0.00 | 0.00 | 0.00 | 48 | 1009.3 |
| 20260501211600 | 96 | 194 | 5.0 | 0.0 | 0.00 | 0.00 | 0.00 | 47 | 1009.3 |
| 20260501210055 | 96 | 180 | 5.0 | 0.0 | 0.00 | 0.00 | 0.00 | 48 | 1009.3 |
| 20260501204603 | 97 | 172 | 5.0 | 0.0 | 0.00 | 0.00 | 0.00 | 48 | 1009.4 |
| 20260501203052 | 95 | 174 | 7.0 | 0.0 | 0.00 | 0.00 | 0.00 | 50 | 1009.6 |
| 20260501201551 | 97 | 167 | 5.0 | 0.0 | 0.00 | 0.00 | 0.00 | 49 | 1009.8 |
| 20260501200049 | 98 | 175 | 8.0 | 0.0 | 0.00 | 0.00 | 0.00 | 46 | 1009.9 |
| 20260501194548 | 99 | 172 | 3.0 | 0.0 | 0.00 | 0.00 | 0.00 | 47 | 1010.1 |
| 20260501193042 | 95 | 191 | 4.0 | 0.0 | 0.00 | 0.00 | 0.00 | 51 | 1010.4 |
| 20260501191542 | 92 | 83 | 2.0 | 0.0 | 0.00 | 0.00 | 0.00 | 44 | 1010.6 |
| 20260501190042 | 92 | 270 | 2.0 | 0.0 | 0.00 | 0.00 | 0.00 | 47 | 1010.9 |
| 20260501184543 | 89 | 198 | 3.0 | 0.0 | 0.00 | 0.00 | 0.00 | 50 | 1011.0 |
| 20260501183037 | 89 | 343 | 3.0 | 0.0 | 0.00 | 0.00 | 0.00 | 50 | 1011.2 |
| 20260501181532 | 88 | 327 | 6.0 | 0.0 | 0.00 | 0.00 | 0.00 | 57 | 1011.3 |
| 20260501180032 | 90 | 200 | 3.0 | 0.0 | 0.00 | 0.00 | 0.00 | 48 | 1011.4 |
| 20260501174529 | 90 | 274 | 3.0 | 0.0 | 0.00 | 0.00 | 0.00 | 48 | 1011.4 |
| 20260501173026 | 89 | 360 | 2.0 | 0.0 | 0.00 | 0.00 | 0.00 | 50 | 1011.5 |